When you browse on this site, cookies collect data to enhance your experience and personalize the content and advertising you see.
Visit our Privacy Policy to learn more. By continuing to use the site, you agree to this use of cookies and data.

Hourly Weather Oleiros

Today, 8 July, Wednesday

Time Temperature Precipitation Wind Pressure Humidity
00:00 +15°C° 0 mm 4 mps 755 mmHg 94%
01:00 +15°C° 0 mm 4 mps 755 mmHg 95%
02:00 +15°C° 0 mm 4 mps 754 mmHg 96%
03:00 +15°C° 0 mm 4 mps 754 mmHg 94%
04:00 +17°C° 0 mm 4 mps 754 mmHg 93%
05:00 +17°C° 0 mm 4 mps 754 mmHg 92%
06:00 +19°C° 0 mm 5 mps 755 mmHg 84%
07:00 +20°C° 0 mm 5 mps 755 mmHg 76%
08:00 +22°C° 0 mm 5 mps 755 mmHg 69%
09:00 +23°C° 0 mm 6 mps 755 mmHg 65%
10:00 +26°C° 0 mm 6 mps 755 mmHg 61%
11:00 +27°C° 0 mm 7 mps 755 mmHg 57%
12:00 +27°C° 0 mm 7 mps 755 mmHg 57%
13:00 +27°C° 0 mm 7 mps 755 mmHg 57%
14:00 +27°C° 0 mm 7 mps 754 mmHg 58%
15:00 +26°C° 0 mm 7 mps 755 mmHg 60%
16:00 +24°C° 0 mm 7 mps 755 mmHg 63%
17:00 +23°C° 0 mm 6 mps 755 mmHg 65%
18:00 +22°C° 0 mm 6 mps 756 mmHg 70%
19:00 +20°C° 0 mm 6 mps 756 mmHg 75%
20:00 +19°C° 0 mm 6 mps 756 mmHg 80%
21:00 +17°C° 0 mm 5 mps 757 mmHg 83%
22:00 +17°C° 0 mm 5 mps 757 mmHg 86%
23:00 +17°C° 0 mm 4 mps 757 mmHg 89%

Tomorrow, 9 July, Thursday

Time Temperature Precipitation Wind Pressure Humidity
00:00 +17°C° 0 mm 4 mps 757 mmHg 91%
01:00 +17°C° 0 mm 4 mps 757 mmHg 92%
02:00 +15°C° 0 mm 4 mps 757 mmHg 94%
03:00 +17°C° 0 mm 4 mps 757 mmHg 93%
04:00 +17°C° 0 mm 3 mps 757 mmHg 93%
05:00 +17°C° 0 mm 3 mps 757 mmHg 92%
06:00 +19°C° 0 mm 3 mps 757 mmHg 82%
07:00 +21°C° 0 mm 4 mps 758 mmHg 71%
08:00 +23°C° 0 mm 4 mps 758 mmHg 60%
09:00 +25°C° 0 mm 4 mps 758 mmHg 56%
10:00 +26°C° 0 mm 4 mps 758 mmHg 52%
11:00 +27°C° 0 mm 5 mps 758 mmHg 48%
12:00 +27°C° 0 mm 4 mps 757 mmHg 48%
13:00 +27°C° 0 mm 4 mps 757 mmHg 48%
14:00 +27°C° 0 mm 4 mps 757 mmHg 47%
15:00 +26°C° 0 mm 4 mps 757 mmHg 51%
16:00 +25°C° 0 mm 4 mps 757 mmHg 55%
17:00 +24°C° 0 mm 3 mps 757 mmHg 60%
18:00 +21°C° 0 mm 3 mps 757 mmHg 71%
19:00 +19°C° 0 mm 2 mps 758 mmHg 82%
20:00 +17°C° 0 mm 2 mps 758 mmHg 93%
21:00 +16°C° 0 mm 2 mps 758 mmHg 94%
22:00 +16°C° 0 mm 2 mps 758 mmHg 96%
23:00 +16°C° 0 mm 2 mps 758 mmHg 97%

Day after tomorrow, 10 July, Friday

Time Temperature Precipitation Wind Pressure Humidity
00:00 +16°C° 0 mm 2 mps 758 mmHg 97%
01:00 +16°C° 0 mm 3 mps 758 mmHg 96%
02:00 +17°C° 0 mm 3 mps 758 mmHg 96%
03:00 +17°C° 0 mm 3 mps 758 mmHg 95%
04:00 +17°C° 0 mm 3 mps 758 mmHg 93%
05:00 +17°C° 0 mm 3 mps 758 mmHg 92%
06:00 +18°C° 0 mm 3 mps 758 mmHg 86%
07:00 +19°C° 0 mm 4 mps 758 mmHg 79%
08:00 +20°C° 0 mm 4 mps 758 mmHg 73%
09:00 +21°C° 0 mm 4 mps 758 mmHg 67%
10:00 +23°C° 0 mm 5 mps 758 mmHg 61%
11:00 +25°C° 0 mm 5 mps 758 mmHg 55%
12:00 +24°C° 0 mm 6 mps 758 mmHg 56%
13:00 +24°C° 0 mm 6 mps 757 mmHg 56%
14:00 +24°C° 0 mm 6 mps 757 mmHg 57%
15:00 +23°C° 0 mm 6 mps 757 mmHg 60%
16:00 +22°C° 0 mm 6 mps 757 mmHg 63%
17:00 +21°C° 0 mm 6 mps 757 mmHg 66%
18:00 +20°C° 0 mm 6 mps 757 mmHg 72%
19:00 +17°C° 0 mm 6 mps 758 mmHg 78%
20:00 +16°C° 0 mm 5 mps 758 mmHg 84%
21:00 +16°C° 0 mm 5 mps 758 mmHg 85%
22:00 +15°C° 0 mm 5 mps 758 mmHg 86%
23:00 +15°C° 0 mm 5 mps 758 mmHg 87%

11 July, Saturday

Time Temperature Precipitation Wind Pressure Humidity
00:00 +15°C° 0 mm 5 mps 757 mmHg 87%
01:00 +15°C° 0 mm 5 mps 757 mmHg 86%
02:00 +15°C° 0 mm 5 mps 757 mmHg 86%
03:00 +16°C° 0 mm 6 mps 757 mmHg 85%
04:00 +16°C° 0 mm 6 mps 756 mmHg 84%
05:00 +16°C° 0 mm 6 mps 756 mmHg 83%
06:00 +19°C° 0 mm 6 mps 756 mmHg 77%
07:00 +20°C° 0 mm 6 mps 756 mmHg 70%
08:00 +22°C° 0 mm 6 mps 756 mmHg 64%
09:00 +24°C° 0 mm 6 mps 755 mmHg 60%
10:00 +26°C° 0 mm 6 mps 755 mmHg 56%
11:00 +27°C° 0 mm 7 mps 755 mmHg 52%
12:00 +28°C° 0 mm 7 mps 755 mmHg 51%
13:00 +28°C° 0 mm 7 mps 754 mmHg 51%
14:00 +29°C° 0 mm 7 mps 754 mmHg 51%
15:00 +28°C° 0 mm 7 mps 754 mmHg 56%
16:00 +26°C° 0 mm 7 mps 754 mmHg 61%
17:00 +24°C° 0 mm 7 mps 754 mmHg 66%
18:00 +22°C° 0.1 mm 6 mps 754 mmHg 74%
19:00 +20°C° 0.1 mm 6 mps 754 mmHg 83%
20:00 +17°C° 0.1 mm 5 mps 755 mmHg 91%
21:00 +17°C° 0.3 mm 5 mps 755 mmHg 93%
22:00 +18°C° 0.3 mm 4 mps 755 mmHg 95%
23:00 +18°C° 0.3 mm 4 mps 755 mmHg 97%

12 July, Sunday

Time Temperature Precipitation Wind Pressure Humidity
00:00 +18°C° 0 mm 4 mps 755 mmHg 98%
01:00 +17°C° 0 mm 4 mps 754 mmHg 98%
02:00 +17°C° 0 mm 4 mps 754 mmHg 98%
03:00 +17°C° 0 mm 3 mps 754 mmHg 97%
04:00 +17°C° 0 mm 3 mps 755 mmHg 97%
05:00 +17°C° 0 mm 3 mps 755 mmHg 96%
06:00 +19°C° 0 mm 3 mps 755 mmHg 87%
07:00 +21°C° 0 mm 3 mps 755 mmHg 78%
08:00 +25°C° 0 mm 3 mps 756 mmHg 70%
09:00 +26°C° 0 mm 4 mps 756 mmHg 63%
10:00 +28°C° 0 mm 5 mps 756 mmHg 56%
11:00 +30°C° 0 mm 5 mps 756 mmHg 49%
12:00 +30°C° 0 mm 6 mps 756 mmHg 48%
13:00 +30°C° 0 mm 6 mps 756 mmHg 48%
14:00 +30°C° 0 mm 6 mps 756 mmHg 48%
15:00 +29°C° 0 mm 6 mps 756 mmHg 52%
16:00 +28°C° 0 mm 6 mps 756 mmHg 55%
17:00 +27°C° 0 mm 6 mps 756 mmHg 59%
18:00 +23°C° 0 mm 6 mps 757 mmHg 66%
19:00 +21°C° 0 mm 5 mps 757 mmHg 73%
20:00 +19°C° 0 mm 5 mps 758 mmHg 80%
21:00 +18°C° 0 mm 4 mps 758 mmHg 83%
22:00 +18°C° 0 mm 4 mps 758 mmHg 85%
23:00 +17°C° 0 mm 4 mps 758 mmHg 88%

13 July, Monday

Time Temperature Precipitation Wind Pressure Humidity
00:00 +17°C° 0 mm 4 mps 758 mmHg 90%
01:00 +15°C° 0 mm 4 mps 758 mmHg 91%
02:00 +16°C° 0 mm 3 mps 757 mmHg 92%
03:00 +15°C° 0 mm 4 mps 758 mmHg 92%
04:00 +17°C° 0 mm 4 mps 758 mmHg 91%
05:00 +17°C° 0 mm 4 mps 758 mmHg 91%
06:00 +19°C° 0 mm 4 mps 758 mmHg 80%
07:00 +21°C° 0 mm 4 mps 758 mmHg 69%
08:00 +23°C° 0 mm 4 mps 758 mmHg 58%
09:00 +26°C° 0 mm 5 mps 758 mmHg 54%
10:00 +27°C° 0 mm 5 mps 758 mmHg 50%
11:00 +29°C° 0 mm 6 mps 758 mmHg 46%
12:00 +29°C° 0 mm 6 mps 758 mmHg 46%
13:00 +29°C° 0 mm 6 mps 758 mmHg 47%
14:00 +29°C° 0 mm 7 mps 758 mmHg 48%
15:00 +28°C° 0 mm 6 mps 758 mmHg 50%
16:00 +27°C° 0 mm 6 mps 758 mmHg 53%
17:00 +24°C° 0 mm 6 mps 758 mmHg 56%
18:00 +22°C° 0 mm 6 mps 758 mmHg 62%
19:00 +21°C° 0 mm 5 mps 759 mmHg 67%
20:00 +19°C° 0 mm 5 mps 759 mmHg 73%
21:00 +17°C° 0 mm 5 mps 759 mmHg 78%
22:00 +16°C° 0 mm 5 mps 759 mmHg 82%
23:00 +17°C° 0 mm 4 mps 759 mmHg 87%
Show more